sat.trackr.live / text

‹ back to catalog

STARLINK-32409

NORAD 61591 · 2024-187T

PAYLOAD ACTIVE UNKNOWN

§ Identity

Operator
Country
US
Launch date
2024-10-18
Launch site
AFETR
Launch vehicle
Mass (kg)
RCS (m²)

Purposes: comms

External: N2YO · Heavens-Above · Gunter

§ Orbital elements

Epoch: 2026-09-21T04:06:32.517216Z

Period
93.85 min
Inclination
53.1613°
Eccentricity
0.0001792
Mean motion
15.34399625 rev/d
Perigee alt
461.5 km
Apogee alt
463.9 km
Semi-major
6,840.8 km
B*
2.0238e-5
RAAN
218.5111°
Arg perigee
82.9898°
Mean anomaly
277.1309°
Rev number
10,927

§ Raw data

STARLINK-324091 61591U 24187T   26264.17120969  .00000307  00000+0  20238-4 0  99972 61591  53.1613 218.5111 0001792  82.9898 277.1309 15.34399625109270

JSON: /api/v1/satellites/61591 · /tle

For live sub-satellite position, see the globe view (requires WebGL).

§ Visibility from observer

Set your observer location to see the next 7 days of passes ≥ 10°. The values pass through the URL so the page stays shareable.

No JS? Fill the form by hand. The geolocation button needs JavaScript.